Hourly Weather Bolshoy Kuleyal

Today, 1 August, Sunday

Time Temperature Precipitation Wind Pressure Humidity
00:00 +18°C° 0 mm 2 mps 738 mmHg 80%
01:00 +18°C° 0 mm 2 mps 738 mmHg 80%
02:00 +17°C° 0 mm 2 mps 739 mmHg 80%
03:00 +17°C° 0 mm 3 mps 739 mmHg 79%
04:00 +17°C° 0 mm 2 mps 739 mmHg 78%
05:00 +18°C° 0 mm 2 mps 740 mmHg 77%
06:00 +18°C° 0 mm 2 mps 740 mmHg 76%
07:00 +20°C° 0 mm 3 mps 741 mmHg 67%
08:00 +22°C° 0 mm 3 mps 741 mmHg 58%
09:00 +25°C° 0 mm 4 mps 741 mmHg 49%
10:00 +26°C° 0 mm 4 mps 741 mmHg 46%
11:00 +27°C° 0 mm 5 mps 741 mmHg 43%
12:00 +28°C° 0 mm 5 mps 742 mmHg 40%
13:00 +28°C° 0 mm 5 mps 742 mmHg 40%
14:00 +28°C° 0 mm 5 mps 742 mmHg 40%
15:00 +28°C° 0 mm 5 mps 742 mmHg 40%
16:00 +27°C° 0 mm 4 mps 742 mmHg 45%
17:00 +26°C° 0 mm 4 mps 742 mmHg 50%
18:00 +25°C° 0 mm 3 mps 742 mmHg 55%
19:00 +24°C° 0 mm 3 mps 742 mmHg 60%
20:00 +21°C° 0 mm 2 mps 742 mmHg 65%
21:00 +20°C° 0 mm 2 mps 742 mmHg 69%
22:00 +19°C° 0 mm 2 mps 743 mmHg 71%
23:00 +19°C° 0 mm 1 mps 743 mmHg 72%

Tomorrow, 2 August, Monday

Time Temperature Precipitation Wind Pressure Humidity
00:00 +19°C° 0 mm 1 mps 743 mmHg 74%
01:00 +18°C° 0 mm 1 mps 743 mmHg 74%
02:00 +18°C° 0 mm 1 mps 743 mmHg 75%
03:00 +17°C° 0 mm 2 mps 743 mmHg 75%
04:00 +18°C° 0 mm 2 mps 743 mmHg 73%
05:00 +19°C° 0 mm 2 mps 743 mmHg 71%
06:00 +20°C° 0 mm 2 mps 744 mmHg 69%
07:00 +21°C° 0 mm 2 mps 744 mmHg 63%
08:00 +24°C° 0 mm 2 mps 744 mmHg 57%
09:00 +26°C° 0 mm 3 mps 744 mmHg 52%
10:00 +28°C° 0 mm 3 mps 743 mmHg 47%
11:00 +29°C° 0 mm 3 mps 743 mmHg 42%
12:00 +32°C° 0 mm 4 mps 743 mmHg 37%
13:00 +33°C° 0 mm 4 mps 743 mmHg 37%
14:00 +33°C° 0 mm 4 mps 742 mmHg 37%
15:00 +33°C° 0 mm 5 mps 742 mmHg 37%
16:00 +32°C° 0 mm 4 mps 742 mmHg 43%
17:00 +30°C° 0 mm 3 mps 742 mmHg 48%
18:00 +29°C° 0 mm 2 mps 742 mmHg 54%
19:00 +27°C° 0.1 mm 2 mps 742 mmHg 57%
20:00 +26°C° 0.1 mm 2 mps 742 mmHg 61%
21:00 +24°C° 0.1 mm 2 mps 742 mmHg 65%
22:00 +23°C° 0 mm 2 mps 741 mmHg 65%
23:00 +23°C° 0 mm 2 mps 741 mmHg 66%

Day after tomorrow, 3 August, Tuesday

Time Temperature Precipitation Wind Pressure Humidity
00:00 +21°C° 0 mm 2 mps 741 mmHg 66%
01:00 +21°C° 0 mm 2 mps 741 mmHg 63%
02:00 +20°C° 0 mm 2 mps 741 mmHg 61%
03:00 +20°C° 0 mm 2 mps 741 mmHg 58%
04:00 +21°C° 0 mm 2 mps 741 mmHg 60%
05:00 +21°C° 0 mm 2 mps 741 mmHg 61%
06:00 +22°C° 0 mm 3 mps 740 mmHg 62%
07:00 +26°C° 0 mm 3 mps 740 mmHg 55%
08:00 +28°C° 0 mm 4 mps 740 mmHg 47%
09:00 +32°C° 0 mm 5 mps 740 mmHg 40%
10:00 +33°C° 0 mm 5 mps 740 mmHg 36%
11:00 +35°C° 0 mm 5 mps 740 mmHg 33%
12:00 +36°C° 0 mm 5 mps 740 mmHg 29%
13:00 +36°C° 0 mm 5 mps 739 mmHg 30%
14:00 +36°C° 0 mm 4 mps 739 mmHg 30%
15:00 +36°C° 0 mm 4 mps 739 mmHg 31%
16:00 +33°C° 0.3 mm 4 mps 739 mmHg 46%
17:00 +28°C° 0.3 mm 4 mps 739 mmHg 62%
18:00 +25°C° 0.3 mm 4 mps 739 mmHg 77%
19:00 +24°C° 0.2 mm 3 mps 739 mmHg 78%
20:00 +23°C° 0.2 mm 2 mps 739 mmHg 79%
21:00 +22°C° 0.2 mm 1 mps 739 mmHg 80%
22:00 +20°C° 0 mm 2 mps 739 mmHg 80%
23:00 +20°C° 0 mm 2 mps 740 mmHg 80%

4 August, Wednesday

Time Temperature Precipitation Wind Pressure Humidity
00:00 +19°C° 0 mm 2 mps 740 mmHg 80%
01:00 +19°C° 0 mm 2 mps 740 mmHg 83%
02:00 +20°C° 0 mm 1 mps 740 mmHg 86%
03:00 +20°C° 0 mm 1 mps 740 mmHg 88%
04:00 +20°C° 6 mm 1 mps 740 mmHg 91%
05:00 +20°C° 6 mm 1 mps 740 mmHg 94%
06:00 +20°C° 6 mm 1 mps 741 mmHg 97%
07:00 +21°C° 0 mm 1 mps 741 mmHg 90%
08:00 +22°C° 0 mm 1 mps 741 mmHg 84%
09:00 +23°C° 0 mm 1 mps 741 mmHg 77%
10:00 +24°C° 0.2 mm 2 mps 741 mmHg 76%
11:00 +24°C° 0.2 mm 2 mps 741 mmHg 75%
12:00 +24°C° 0.2 mm 3 mps 741 mmHg 74%
13:00 +24°C° 0.9 mm 2 mps 742 mmHg 75%
14:00 +24°C° 0.9 mm 2 mps 742 mmHg 77%
15:00 +24°C° 0.9 mm 2 mps 742 mmHg 78%
16:00 +23°C° 0.4 mm 2 mps 742 mmHg 80%
17:00 +21°C° 0.4 mm 2 mps 742 mmHg 82%
18:00 +21°C° 0.4 mm 2 mps 742 mmHg 84%
19:00 +20°C° 0 mm 2 mps 742 mmHg 85%
20:00 +18°C° 0 mm 2 mps 743 mmHg 86%
21:00 +18°C° 0 mm 1 mps 743 mmHg 88%
22:00 +18°C° 0 mm 1 mps 743 mmHg 88%
23:00 +18°C° 0 mm 1 mps 743 mmHg 88%

5 August, Thursday

Time Temperature Precipitation Wind Pressure Humidity
00:00 +16°C° 0 mm 2 mps 744 mmHg 89%
01:00 +16°C° 0 mm 2 mps 744 mmHg 88%
02:00 +15°C° 0 mm 2 mps 744 mmHg 87%
03:00 +15°C° 0 mm 2 mps 744 mmHg 86%
04:00 +15°C° 0 mm 2 mps 744 mmHg 85%
05:00 +16°C° 0 mm 2 mps 745 mmHg 84%
06:00 +16°C° 0 mm 2 mps 745 mmHg 83%
07:00 +18°C° 0 mm 2 mps 745 mmHg 73%
08:00 +20°C° 0 mm 3 mps 745 mmHg 63%
09:00 +22°C° 0 mm 3 mps 745 mmHg 53%
10:00 +22°C° 0 mm 3 mps 746 mmHg 50%
11:00 +23°C° 0 mm 4 mps 746 mmHg 46%
12:00 +23°C° 0 mm 4 mps 746 mmHg 43%
13:00 +25°C° 0 mm 4 mps 746 mmHg 41%
14:00 +25°C° 0 mm 4 mps 745 mmHg 39%
15:00 +25°C° 0 mm 4 mps 745 mmHg 38%
16:00 +24°C° 0 mm 3 mps 745 mmHg 43%
17:00 +22°C° 0 mm 3 mps 745 mmHg 48%
18:00 +21°C° 0 mm 2 mps 746 mmHg 53%
19:00 +19°C° 0 mm 2 mps 746 mmHg 57%
20:00 +17°C° 0 mm 2 mps 746 mmHg 60%
21:00 +15°C° 0 mm 2 mps 746 mmHg 64%
22:00 +15°C° 0 mm 2 mps 746 mmHg 63%
23:00 +14°C° 0 mm 2 mps 746 mmHg 61%

6 August, Friday

Time Temperature Precipitation Wind Pressure Humidity
00:00 +13°C° 0 mm 2 mps 746 mmHg 60%
01:00 +13°C° 0 mm 2 mps 746 mmHg 61%
02:00 +12°C° 0 mm 2 mps 746 mmHg 62%
03:00 +12°C° 0 mm 1 mps 747 mmHg 63%
04:00 +13°C° 0 mm 1 mps 747 mmHg 63%
05:00 +13°C° 0 mm 1 mps 747 mmHg 64%
06:00 +14°C° 0 mm 1 mps 747 mmHg 64%
07:00 +16°C° 0 mm 2 mps 747 mmHg 58%
08:00 +18°C° 0 mm 2 mps 748 mmHg 53%
09:00 +19°C° 0 mm 2 mps 748 mmHg 48%
10:00 +20°C° 0 mm 2 mps 748 mmHg 45%
11:00 +21°C° 0 mm 2 mps 748 mmHg 42%
12:00 +23°C° 0 mm 2 mps 747 mmHg 39%
13:00 +24°C° 0 mm 2 mps 747 mmHg 39%
14:00 +24°C° 0 mm 2 mps 747 mmHg 39%
15:00 +24°C° 0 mm 2 mps 747 mmHg 39%
16:00 +23°C° 0 mm 2 mps 747 mmHg 46%
17:00 +21°C° 0 mm 2 mps 747 mmHg 53%
18:00 +21°C° 0 mm 1 mps 747 mmHg 59%
19:00 +20°C° 0 mm 1 mps 747 mmHg 62%
20:00 +18°C° 0 mm 1 mps 747 mmHg 64%
21:00 +16°C° 0 mm 1 mps 747 mmHg 67%
22:00 +16°C° 0 mm 1 mps 747 mmHg 66%
23:00 +16°C° 0 mm 1 mps 747 mmHg 65%
Show more

We Need Your Consent

Meteoprog and our Service Providers may store and access personal data such as cookies, device identifiers or other similar technologies on your device and process such data to personalise content and ads, as well as provide social media features and to analyse the traffic.

  • Store and/or access information on your device

    Cookies, device identifiers or other information can be stored or accessed on your device for the purposes indicated above.

  • Personalised ads and content, ad and content measurement, audience insights, and products development

    Ads and content can be personalised based on a profile. More data can be added to better personalise ads and content. Ad and content performance can be measured. Insights about the audience who saw the ads and content can be derived. Such data can be used to develop or improve user’s experience, systems and software.

By clicking ‘I Agree’ you will allow the use of indicated cookies, device identifiers, web beacons or other similar technologies. Your settings can be changed in the browser on your device.

For certain purposes, legitimate interests may be relied on, rather than consent. You can read more about this in our Privacy and Cookie Policy.